Regional Weather Roundup
Issued by NWS Northern Indiana

Home | Current Version | Previous Version | Graphics & Text | Print | Product List | Glossary On
Versions: 1 2 3 4 5 6 7 8 9 10 11 12 13 14 15 16 17 18 19 20 21 22 23 24 25 26 27 28 29 30 31 32 33 34 35 36 37 38 39 40 41 42 43 44 45 46 47 48 49 50
000
ASUS43 KIWX 282100
RWRIWX

KIWX WEATHER ROUNDUP
NATIONAL WEATHER SERVICE NORTHERN INDIANA
500 PM EDT SAT MAY 28 2016

NOTE: "FAIR" INDICATES FEW OR NO CLOUDS BELOW 12,000 FEET WITH NO
SIGNIFICANT WEATHER AND/OR OBSTRUCTIONS TO VISIBILITY.

* THESE STATIONS ARE NOT UNDER NWS QUALITY CONTROL. THEY ALSO MAY NOT
  REPORT WEATHER SUCH AS PRECIPITATION OR FOG.

INZ001>027-282200-
NORTHERN INDIANA

CITY           SKY/WX    TMP DP  RH WIND       PRES   REMARKS
GARY*          PTSUNNY   82  72  69 S9G29     29.93F
SOUTH BEND     MOSUNNY   83  60  45 SW22G28   29.96F
ELKHART*       MOSUNNY   84  66  54 SW13      29.97F
GOSHEN         MOSUNNY   85  57  38 SW21G29   29.97S
ANGOLA*          N/A     88  57  35 S15       29.98F
FORT WAYNE     CLOUDY    87  61  41 SW18      30.00F

$$
INZ028>050-282200-
CENTRAL INDIANA

CITY           SKY/WX    TMP DP  RH WIND       PRES   REMARKS
LAFAYETTE      CLOUDY    82  59  45 S13G23    29.97S
KOKOMO*        CLOUDY    82  61  47 S16G23    29.98S
MUNCIE*        LGT RAIN  83  63  50 SW10G18   30.03R
INDIANAPOLIS   NOT AVBL

$$
MIZ043>046-050>051-056>058-064>065-071>073-077>080-282200-
SOUTHWEST LOWER MICHIGAN

CITY           SKY/WX    TMP DP  RH WIND       PRES   REMARKS
BATTLE CREEK   MOSUNNY   84  60  44 S16G24    29.97F
BENTON HARBOR  CLOUDY    81  61  50 S14G21    29.94F
COLDWATER*     PTSUNNY   84  57  40 S10G17    29.98S
HILLSDALE*     MOSUNNY   83  55  38 S8        30.01S HAZE
HOLLAND        CLOUDY    81  65  58 SW12      29.95F
GRAND RAPIDS   LGT RAIN  83  63  50 SW18      29.96R
KALAMAZOO      CLOUDY    85  63  47 SW9       29.96F
STURGIS*       CLOUDY    86  60  41 SW17G25   29.96F
THREE RIVERS*  PTSUNNY   83  58  42 SW14G20   29.97S

$$
OHZ001>008-015>018-024>025-282200-
NORTHWEST OHIO

CITY           SKY/WX    TMP DP  RH WIND       PRES   REMARKS
DEFIANCE       CLOUDY    84  62  47 S20       30.01S
FINDLAY        CLOUDY    75  64  68 S8        30.05F
TOLEDO EXPRESS CLOUDY    83  59  44 SW15G23   30.01S
TOLEDO METCALF PTSUNNY   79  63  57 SW22G31   30.03R
LIMA           CLOUDY    74  71  91 S8        30.05F

$$
AND FOR LAKE MICHIGAN COASTAL AND OPEN LAKE BUOY OBSERVATIONS

STATION/POSITION TEMP    WIND        PRES    VSBY  WAVE
                 AIR SEA DIR/SP/G                  HT/PER
                 (F)     (DEG/KT/KT) (MB)    (MI)  (FT/S)
CALUMET HARBOR    77     180/ 13/ 19 1012.7F
MICHIGAN CITY     78     180/ 16/ 19   N/A
BURNS HARBOR      77     200/ 18/ 27 1013.9F
SAINT JOSEPH      78     180/ 12/ 18 1014.9R
SOUTH LAKE BUOY   55 50  160/ 10/ 12 1013.2          1/ 3
4 MI NW BRIDGMAN  70 61  190/ 10/ 12   N/A           2/ 3
MICHIGAN CITY     70 58  220/ 14/ 17   N/A           2/ 3

$$
&&




USA.gov is the U.S. government's official web portal to all federal, state and local government web resources and services.